Location: Lombard
(41.8800°N, 88.0080°W)
Time: 19:35:24
(UTC-05:00)

Transit 2A - Pass Details

Date: 09 February 2023
Orbit: 591 x 964 km, 66.7° (Epoch: 29 March)

Event Time Altitude Azimuth Distance (km) Brightness Sun altitude
Rises 17:02:41 0° 260° (W) 3,071 11.4 1.7°
Reaches altitude 10° 17:05:43 10° 280° (W) 2,229 9.6 1.2°
Maximum altitude 17:09:04 17° 322° (NW) 1,856 8.3 0.6°
Drops below altitude 10° 17:12:39 10° 2° (N) 2,404 8.4 0.0°
Sets 17:16:06 0° 22° (NNE) 3,421 9.0 -0.6°
